KI5NYZ-13 Weather Reports


time (UTC)temp
F
wind
direction
speed
knots
gust
knots
rain 1hr
in
rain 24hr
in
rain mn
in
humidity
%
barometer
mb
20260903024252 85 181 0.9 0.9 0.00 0.29 0.29 34 1007.3
20260903021251 87 188 0.0 0.0 0.00 0.29 0.29 32 1006.7
20260903014250 89 183 0.0 0.0 0.00 0.29 0.29 31 1006.1
20260903011249 92 182 0.9 0.9 0.00 0.29 0.29 29 1005.4
20260903004248 97 192 0.0 0.0 0.00 0.29 0.29 25 1004.4
20260903001247 98 187 0.0 0.0 0.00 0.29 0.29 23 1004.0
20260902234246 97 166 0.9 0.9 0.00 0.29 0.29 24 1004.3
20260902231245 99 185 3.5 3.5 0.00 0.30 0.28 23 1004.1
20260902224244 100 169 0.0 0.9 0.00 0.31 0.28 22 1004.0
20260902221243 99 146 0.9 1.7 0.00 0.34 0.28 23 1004.4
20260902214242 100 153 0.9 0.9 0.01 0.35 0.27 23 1004.5
20260902211242 98 199 0.9 2.6 0.00 0.37 0.27 23 1005.1
20260902204240 98 155 0.9 0.9 0.01 0.40 0.26 23 1005.6
20260902201240 98 226 2.6 3.5 0.02 0.41 0.26 24 1006.1
20260902194240 97 186 2.6 2.6 0.02 0.41 0.24 25 1006.7
20260902191236 98 203 2.6 3.5 0.02 0.42 0.23 25 1007.0
20260902184235 96 198 3.5 3.5 0.03 0.42 0.22 27 1007.8
20260902181234 95 198 3.5 3.5 0.04 0.43 0.20 28 1008.6
20260902174233 94 195 4.3 4.3 0.04 0.42 0.18 31 1009.4
20260902171232 92 188 4.3 4.3 0.03 0.42 0.15 33 1009.8
20260902164231 90 206 3.5 3.5 0.03 0.41 0.13 36 1010.3
20260902161230 88 205 2.6 3.5 0.06 0.42 0.11 38 1010.8
20260902154229 85 208 3.5 3.5 0.08 0.42 0.09 42 1011.3
20260902151228 83 198 3.5 3.5 0.04 0.39 0.04 44 1011.7
20260902144228 81 210 2.6 3.5 0.00 0.37 0.00 47 1012.1
20260902141227 76 190 1.7 1.7 0.00 0.36 0.00 52 1013.0
20260902134225 73 249 1.7 1.7 0.00 0.36 0.00 59 1013.7
20260902131224 72 204 0.9 0.9 0.00 0.36 0.00 58 1013.3
20260902124223 70 186 0.9 0.9 0.00 0.36 0.00 60 1013.4
20260902121222 70 193 0.9 0.9 0.00 0.36 0.00 60 1013.4
20260902114221 71 206 0.9 0.9 0.00 0.36 0.00 58 1013.1
20260902111220 72 188 0.9 0.9 0.00 0.36 0.00 57 1013.1
20260902104219 72 189 0.9 1.7 0.00 0.36 0.00 57 1013.0
20260902101218 74 187 0.9 0.9 0.00 0.36 0.00 53 1012.7
20260902094217 74 177 1.7 1.7 0.00 0.36 0.00 52 1012.5
20260902091216 75 173 0.9 1.7 0.00 0.36 0.00 51 1012.7
20260902084215 75 174 0.9 0.9 0.00 0.36 0.00 49 1012.4
20260902081214 76 167 1.7 1.7 0.00 0.36 0.00 49 1012.3
20260902074213 76 172 0.9 0.9 0.00 0.36 0.00 48 1012.4
20260902071212 76 183 0.0 0.0 0.00 0.36 0.00 49 1012.3
20260902064211 76 172 0.9 0.9 0.00 0.36 0.00 48 1012.2
20260902061210 77 183 0.0 0.0 0.00 0.36 0.00 46 1012.0
20260902054209 78 156 0.0 0.0 0.00 0.36 0.00 44 1011.5
20260902051208 78 166 0.0 0.0 0.00 0.36 0.00 44 1011.5
20260902044207 80 146 0.0 1.7 0.00 0.36 0.36 42 1011.4
20260902041206 80 178 0.0 1.7 0.00 0.36 0.36 41 1011.3
20260902034205 80 148 0.0 1.7 0.00 0.36 0.36 41 1011.0
20260902031204 80 70 0.0 0.0 0.00 0.36 0.36 40 1010.6